Theta_e
281 277 274 271 274 277 277 278 278 278 279 279 278 277 278 278 281 283 282 285 287 282 282 282 282 281 283 284 286 286 287 286 286 285 284 284 285 285 285 285 285 285 285 288 287 288 288 289 289 289 289 289 290 290 290 290 291 291 292 292 292 295 297 298 298 300 302 303 304 305 304 302 304 304 304 304 305 305 305 305 305 304 305 305 305 307
280 277 275 276 277 277 277 277 278 278 278 278 277 276 279 282 280 282 281 284 284 281 280 282 281 281 283 285 286 287 286 284 284 285 285 284 284 284 285 284 284 285 287 287 286 286 287 287 288 288 288 289 287 288 289 289 289 290 291 291 292 293 295 296 298 298 300 302 303 303 303 302 301 301 301 301 303 304 303 303 303 303 303 302 302 304
277 275 277 279 279 277 277 277 277 275 275 275 277 277 279 281 284 285 286 286 284 282 278 281 280 281 283 285 286 286 285 286 287 286 285 285 284 284 284 284 284 284 284 285 285 285 285 286 287 287 287 287 287 287 288 289 289 289 289 290 291 292 293 294 296 297 298 300 302 302 302 302 300 302 302 301 302 303 301 301 301 302 301 300 300 301
274 276 278 278 277 277 276 277 275 273 274 276 276 274 274 280 281 278 283 285 283 280 278 280 279 280 283 285 285 287 287 286 287 287 286 286 285 284 284 284 284 283 283 283 284 284 284 285 285 285 286 286 287 287 287 288 288 289 289 289 290 291 292 293 294 296 297 299 301 301 301 300 298 298 300 300 300 300 299 298 299 300 299 299 299 300
275 278 279 278 276 276 275 275 276 274 273 274 277 274 275 277 279 281 279 281 284 283 285 284 281 279 281 280 281 284 288 287 287 286 286 286 286 286 286 285 285 283 283 283 283 283 283 283 283 284 285 286 285 286 286 287 288 289 288 289 289 290 290 292 294 294 295 296 297 298 298 298 297 297 297 296 296 297 297 297 297 297 298 298 298 298
275 278 279 277 276 275 274 274 274 271 271 271 273 275 275 275 276 279 280 279 279 279 282 281 276 273 278 280 279 282 284 284 286 284 284 284 285 285 284 284 284 285 285 283 283 283 283 283 283 283 284 284 284 285 286 287 287 287 288 288 288 289 289 290 291 293 294 293 293 293 292 291 291 291 292 292 293 294 294 294 296 296 296 296 296 297
276 278 278 274 275 274 274 274 274 272 269 270 275 277 277 276 277 277 279 281 276 272 275 277 273 265 276 277 279 280 280 282 284 284 283 284 284 284 284 284 283 283 283 284 283 283 283 283 283 283 283 283 283 284 285 286 287 287 287 287 287 288 289 290 290 291 293 291 292 293 292 291 291 290 292 294 295 294 294 294 294 294 295 294 294 294
276 276 277 274 274 273 273 273 275 273 269 272 278 278 278 277 277 277 277 276 274 275 274 273 273 269 272 276 280 281 280 281 281 282 283 283 283 283 284 284 283 283 283 283 283 283 283 282 282 282 283 283 283 284 284 284 286 286 287 287 287 288 289 288 289 289 291 290 290 290 291 292 291 291 291 293 293 294 293 293 292 293 293 293 293 293
274 276 276 276 273 271 270 273 277 277 274 275 280 282 278 278 278 276 275 274 275 273 270 274 274 270 269 277 282 281 277 278 278 278 280 282 283 283 283 284 284 284 284 283 283 282 283 283 283 283 282 283 283 283 283 283 284 285 286 287 287 287 287 287 288 289 288 290 289 288 288 288 290 290 290 291 291 291 291 291 291 291 291 291 291 292
275 277 276 278 275 273 274 276 276 277 273 277 280 282 280 279 279 278 275 277 274 266 265 270 271 267 266 274 277 280 278 276 277 279 280 281 282 284 284 284 283 282 282 284 283 283 282 283 283 283 282 282 282 283 284 283 283 284 285 285 285 285 286 287 287 288 288 288 289 287 287 287 287 288 288 288 288 289 289 288 289 289 289 289 289 290
278 280 281 277 276 278 277 276 276 276 277 279 279 278 277 275 275 274 270 272 267 260 267 272 272 270 263 269 274 275 277 278 278 279 280 282 283 283 283 282 283 282 282 282 282 282 281 281 282 282 281 281 282 282 282 282 282 283 283 283 284 285 286 286 286 287 287 287 287 286 287 286 286 287 287 287 286 287 287 286 287 287 288 288 288 288
276 277 278 280 282 279 278 276 277 276 277 277 276 275 277 277 270 269 261 261 260 257 267 272 273 273 263 270 275 278 280 282 281 279 279 281 282 282 282 283 282 282 282 282 281 281 281 281 281 281 281 281 281 282 282 282 282 282 282 282 282 283 284 285 285 285 286 286 287 287 287 286 286 286 286 286 285 286 286 286 286 287 287 287 287 287
275 276 277 277 282 279 277 274 274 276 277 276 273 274 269 263 261 263 258 261 253 259 271 273 274 268 270 273 273 277 279 279 280 280 280 280 281 281 282 282 282 281 281 281 281 281 280 280 280 280 280 280 280 280 281 281 281 281 281 281 281 282 282 283 283 283 284 285 285 286 286 286 287 286 286 286 285 286 286 286 286 286 286 286 286 286
270 275 276 277 278 279 278 272 272 272 274 274 269 262 263 260 249 252 253 258 259 264 270 273 270 270 273 275 276 277 278 280 279 279 280 280 280 280 280 281 281 280 280 280 280 279 279 279 279 279 279 280 280 280 280 280 281 280 281 281 281 281 282 283 283 283 283 283 284 285 285 285 286 285 285 285 285 286 286 287 286 286 286 285 285 286
264 267 274 277 274 277 277 276 276 273 273 272 273 269 266 255 261 260 255 262 260 262 267 269 265 260 268 274 277 278 278 278 278 279 279 279 279 279 278 279 278 279 279 279 279 279 279 279 279 279 279 279 279 280 280 279 280 280 280 280 280 280 281 282 282 282 282 282 283 283 283 284 285 284 284 285 286 285 285 286 286 286 286 286 286 286
270 270 275 277 278 277 276 278 278 274 273 273 274 272 267 265 261 265 259 258 256 261 263 263 265 264 274 277 279 278 278 278 279 279 280 280 280 279 280 280 280 280 280 280 279 279 279 279 278 279 279 279 279 279 279 280 280 280 280 279 279 279 280 281 283 281 282 282 282 282 282 283 285 286 284 284 284 284 284 284 285 285 285 286 286 286
268 269 275 276 277 277 278 278 277 276 266 270 271 263 270 272 268 256 261 264 266 261 257 258 269 272 274 275 276 278 278 278 278 278 278 279 280 279 279 280 280 280 280 279 280 279 279 278 278 278 278 278 279 279 279 280 279 279 280 279 279 279 279 280 281 281 281 281 281 281 281 282 282 282 282 282 282 283 284 284 284 284 285 285 286 286
267 270 274 275 277 277 277 278 278 276 277 272 264 272 275 275 271 266 262 252 252 257 260 260 263 266 267 264 274 277 276 278 277 277 278 279 278 279 280 280 281 281 281 280 280 279 279 278 279 278 278 278 278 278 278 279 279 279 279 279 279 279 279 279 280 281 281 280 281 281 280 281 281 282 282 282 282 282 282 282 283 284 284 284 285 286
274 265 271 274 274 276 278 278 277 279 278 276 274 272 272 260 264 258 259 258 258 255 257 262 265 265 269 270 271 274 276 277 277 277 277 277 278 279 280 280 281 280 280 280 280 280 280 279 279 278 278 278 278 280 279 279 279 278 278 279 278 279 279 279 280 281 281 281 281 282 281 280 280 281 281 282 282 282 281 281 282 282 283 283 285 285
273 266 270 275 275 276 276 274 268 272 277 273 276 273 270 268 263 260 262 261 258 256 257 260 262 265 270 271 274 276 277 278 278 277 277 278 279 280 280 280 281 280 281 281 281 281 280 279 279 278 278 278 278 278 278 278 278 277 278 278 279 279 278 278 278 280 279 280 280 280 280 280 280 281 281 281 281 281 281 281 282 281 281 282 284 283
271 270 263 272 272 274 271 273 271 273 270 273 272 269 269 265 268 269 262 263 263 252 254 254 260 263 270 273 275 276 277 279 278 278 279 279 280 280 280 280 280 280 281 281 282 281 280 280 279 278 278 278 277 277 279 278 277 278 277 277 277 278 278 277 278 278 279 279 279 279 278 279 279 280 280 280 280 281 280 281 282 281 282 282 281 282
264 267 264 269 270 268 271 276 275 274 274 273 272 272 272 268 264 262 262 259 255 261 256 253 264 268 273 276 278 277 278 278 278 279 279 279 280 280 280 280 280 280 280 281 282 281 281 280 279 278 278 278 277 278 277 278 277 277 277 278 277 277 277 277 278 278 278 278 279 278 278 278 278 278 279 279 279 280 280 280 280 280 281 280 280 281
273 266 267 265 270 273 274 275 276 275 274 271 274 274 274 269 264 258 259 261 260 260 257 254 257 266 274 274 276 277 277 277 277 278 279 279 280 280 280 280 280 280 281 281 281 281 281 280 279 279 279 278 278 278 277 277 277 278 277 277 277 277 278 277 278 278 278 278 278 278 278 278 278 278 278 278 278 279 279 279 279 280 280 280 280 280
280 263 265 269 270 271 273 273 275 273 274 273 273 273 272 271 270 269 265 264 261 259 260 258 258 267 274 276 275 275 276 276 276 277 278 279 279 279 279 279 279 279 279 279 279 279 280 279 278 277 278 278 278 277 277 278 278 277 277 278 277 277 278 277 278 278 278 277 277 277 276 277 277 277 277 277 278 278 278 278 279 280 279 279 280 280
267 267 267 261 264 267 265 268 270 269 271 270 272 272 272 271 269 266 265 263 264 261 263 263 261 264 275 276 275 275 275 275 276 276 277 278 279 279 278 278 279 279 279 278 278 278 278 278 278 278 278 278 278 278 278 278 278 278 278 277 277 278 277 277 277 277 277 277 277 276 276 276 276 276 276 277 277 277 277 277 278 278 279 279 279 279
270 265 265 263 262 263 265 266 268 265 267 271 268 271 272 272 268 268 264 260 261 262 265 259 262 272 274 274 274 274 275 276 276 276 275 277 278 279 278 278 278 278 278 278 278 278 278 279 279 279 278 278 278 278 278 278 278 278 278 278 278 278 278 278 277 277 277 277 277 277 276 276 276 276 276 276 276 277 277 277 277 277 278 278 278 278
263 265 266 267 267 269 272 273 271 274 270 269 269 269 270 271 272 270 266 260 264 262 264 269 270 274 276 277 277 278 276 276 277 278 278 277 277 277 277 278 278 278 278 278 278 278 277 277 278 279 279 279 279 278 278 278 278 278 278 278 278 278 278 278 277 277 277 277 276 276 277 276 276 276 276 277 277 277 277 277 277 277 277 277 277 277
262 265 269 268 270 273 273 272 272 273 271 272 271 271 271 271 270 269 266 266 268 264 265 270 272 271 273 276 275 275 276 275 276 276 277 277 278 278 278 278 281 278 278 277 277 277 277 278 278 278 278 278 278 278 278 278 278 278 278 278 278 278 277 278 277 277 277 276 276 277 277 277 277 277 277 277 276 277 277 277 277 277 277 277 277 277
265 263 266 268 268 271 271 271 272 272 271 271 271 271 270 271 269 268 269 272 269 268 270 271 270 271 275 277 278 278 277 277 278 278 278 278 278 277 277 277 277 277 278 278 278 278 278 278 279 279 279 279 278 278 278 277 277 277 277 277 278 277 277 278 277 277 277 277 277 278 278 278 277 277 277 277 277 277 277 277 277 277 277 276 277 278
268 264 264 266 268 270 271 271 271 270 269 270 270 270 271 271 270 271 271 272 271 271 273 274 274 274 276 277 279 279 278 277 278 278 277 276 277 278 277 277 277 278 278 278 279 279 279 279 279 279 279 279 278 278 278 278 278 278 278 278 278 278 278 277 277 277 277 277 278 278 278 278 277 277 277 277 277 277 277 277 277 277 277 277 277 277
271 264 273 265 264 270 269 269 268 268 268 268 271 271 271 271 271 271 271 272 272 271 272 273 272 272 277 279 278 280 279 278 277 277 277 278 277 277 277 277 277 278 278 278 279 279 279 279 279 279 278 279 279 278 278 278 278 278 277 278 278 278 279 277 277 277 277 278 278 278 278 277 277 277 277 277 277 277 277 277 277 277 277 277 277 277
270 264 262 259 264 264 264 265 267 269 269 268 269 272 273 271 268 270 269 272 271 270 271 270 269 270 275 278 277 278 277 276 276 277 277 277 277 277 276 277 277 278 278 278 278 279 278 279 279 279 279 279 279 279 278 278 278 277 278 278 278 279 278 277 277 277 278 278 278 278 278 278 277 277 277 277 277 277 277 277 277 277 277 277 277 277
267 264 263 260 264 264 264 264 267 268 269 271 273 275 275 274 273 271 272 273 274 274 270 268 270 276 277 278 277 278 277 276 276 276 277 277 277 277 277 277 278 278 278 279 279 280 279 279 280 280 280 279 279 279 279 279 278 278 279 278 279 279 278 278 278 277 278 278 278 278 278 278 277 277 277 277 277 277 277 277 277 277 277 277 277 277
266 267 261 264 263 259 259 263 266 267 266 270 276 275 274 272 272 271 271 272 274 274 274 275 277 278 277 277 276 277 278 279 278 278 279 279 279 278 277 277 278 278 279 279 279 279 280 280 280 280 280 280 280 280 280 279 279 279 279 279 278 278 278 278 278 277 278 278 278 278 278 278 277 277 278 278 277 277 277 277 277 277 277 277 277 277
269 267 262 263 261 263 262 266 265 260 268 275 277 277 275 274 274 274 275 275 275 275 276 276 276 277 278 278 278 278 279 279 278 279 280 279 279 279 279 279 278 279 279 279 279 280 280 280 280 280 279 279 279 280 279 278 278 279 278 278 278 278 278 278 278 278 278 278 278 278 278 278 278 277 278 277 277 277 277 277 277 276 277 277 276 276
267 267 264 265 259 261 262 258 260 269 269 276 279 279 278 276 275 273 274 276 277 276 276 275 277 278 279 279 279 279 278 277 277 279 280 281 280 280 279 279 280 280 279 280 280 280 280 280 280 280 280 281 280 279 279 279 279 278 278 279 278 278 278 278 278 278 278 277 278 278 278 278 278 278 277 277 277 277 277 277 276 276 277 276 276 276
271 270 268 267 266 264 260 257 269 273 273 275 274 274 274 272 272 272 269 275 276 277 276 276 277 277 278 278 279 278 277 277 276 278 281 281 281 280 280 281 281 281 281 281 281 281 282 281 280 280 280 280 279 279 279 279 279 278 278 278 278 278 278 277 277 278 278 278 278 278 278 278 278 277 277 277 277 276 276 276 276 276 276 276 276 276
274 271 271 270 268 269 265 265 267 263 265 270 274 275 276 275 276 275 274 275 280 278 278 277 277 278 277 278 278 277 276 275 275 276 280 281 280 280 280 281 282 282 281 281 281 280 280 280 280 280 279 279 279 279 280 279 279 278 278 278 278 277 277 277 277 278 278 278 278 278 278 278 277 277 277 277 276 276 276 276 276 276 276 276 276 276
271 274 272 271 270 265 263 263 262 262 272 274 275 276 275 274 276 275 274 273 280 280 278 278 278 278 278 278 279 278 277 276 277 279 282 281 281 280 280 281 281 281 281 281 281 280 280 280 280 279 278 277 278 279 279 279 278 278 277 278 278 278 277 278 278 278 278 278 279 278 278 277 277 277 277 276 276 276 276 275 276 276 275 275 275 275
269 271 272 269 268 269 266 262 264 269 269 273 274 276 275 275 277 276 268 269 276 276 278 278 278 278 279 279 279 278 279 278 280 282 282 282 282 281 279 281 280 280 280 280 280 280 281 280 279 278 278 278 279 280 280 279 278 277 278 278 278 278 278 278 279 279 279 279 278 277 277 277 277 276 276 276 275 275 275 275 274 274 274 274 274 274
268 270 271 267 268 269 270 268 269 271 277 279 279 275 275 276 275 265 266 276 278 277 276 278 278 279 279 279 279 279 280 283 285 286 284 280 279 280 280 279 280 280 280 280 280 282 280 279 279 279 280 280 280 280 280 278 277 277 278 278 278 278 279 280 280 279 278 277 277 277 277 276 276 276 275 275 275 275 273 274 273 273 273 273 273 273
267 268 270 270 268 267 269 267 268 271 278 281 280 278 276 275 264 268 278 279 279 279 276 277 278 278 278 279 280 280 283 283 283 281 280 280 281 281 280 281 280 280 279 279 280 281 280 279 279 279 279 279 280 280 280 278 278 278 278 277 277 279 280 280 278 277 277 276 276 276 276 276 275 275 276 274 273 273 272 273 273 273 272 272 272 271
272 266 266 267 270 270 269 266 266 265 276 277 277 275 277 273 274 279 277 277 277 278 276 277 277 279 278 279 280 281 281 281 280 280 281 281 280 280 281 281 281 281 281 281 281 280 279 279 279 280 280 280 280 280 279 278 277 278 278 277 278 280 280 278 277 277 276 276 276 275 276 276 274 274 274 273 272 272 272 272 271 271 271 271 270 270
277 272 269 268 272 266 267 264 267 275 276 278 279 274 275 280 282 278 279 282 279 276 278 279 278 279 279 279 281 281 280 280 279 279 280 280 280 280 280 280 280 280 280 280 279 280 280 279 279 279 280 280 280 280 279 278 278 278 278 278 280 279 277 277 276 276 275 274 275 275 274 273 272 273 272 272 272 272 272 271 270 270 269 269 269 268
279 278 276 273 275 274 272 273 277 277 278 279 280 283 279 281 282 282 281 281 281 281 280 281 282 282 282 281 280 280 280 280 280 281 280 281 281 281 281 281 281 281 281 281 281 281 279 279 279 279 278 279 279 279 279 279 278 277 277 279 279 277 277 275 274 273 273 274 274 273 272 271 272 271 271 272 272 271 271 269 267 267 268 267 267 268
282 282 281 279 279 281 282 283 284 283 282 281 280 280 280 281 280 279 279 279 280 281 282 282 283 283 283 282 281 280 280 281 281 281 281 281 281 281 281 280 280 280 280 279 279 279 280 279 278 278 278 279 280 280 279 278 277 276 278 279 277 276 275 273 272 273 274 273 272 271 270 270 270 270 270 271 271 269 268 267 266 266 266 266 266 266
282 282 280 277 279 278 275 282 281 283 284 285 285 285 283 282 282 283 282 282 282 283 283 283 283 283 282 282 281 281 282 282 281 281 281 281 281 281 281 281 281 281 281 280 281 280 279 278 279 278 278 278 279 279 279 276 277 277 278 275 275 273 272 273 273 273 272 272 271 270 269 269 269 269 269 269 268 267 265 265 265 265 264 264 264 263
279 285 280 280 279 277 278 281 283 285 285 282 283 282 283 284 284 282 282 283 283 284 284 284 283 282 283 282 282 282 282 282 281 281 281 282 282 281 281 281 281 281 281 281 281 280 279 279 279 279 279 279 279 279 278 277 276 276 275 273 272 271 272 272 272 272 272 271 270 269 269 268 268 268 267 266 263 263 264 264 264 263 263 263 263 263
282 281 276 280 278 280 282 282 283 284 283 284 285 285 286 286 285 285 285 285 284 283 283 284 283 283 283 283 283 283 282 282 282 282 281 282 282 281 281 282 281 281 281 281 281 280 280 280 279 279 278 279 279 279 277 275 274 271 273 273 271 272 272 272 271 271 270 269 268 268 267 267 267 266 264 264 262 263 264 263 262 263 264 265 265 263
283 279 282 281 277 277 278 280 283 278 279 281 282 283 284 284 284 284 283 282 282 282 283 282 283 283 283 283 282 282 281 282 282 282 282 282 282 282 282 282 282 281 281 281 281 280 279 278 278 278 278 278 279 277 275 273 272 269 270 271 271 272 272 271 270 268 268 267 267 267 266 265 264 262 261 261 261 262 262 266 267 267 265 265 268 270
281 282 282 279 278 278 282 284 285 284 284 284 285 284 283 283 283 282 282 283 284 284 284 283 283 283 283 283 282 281 281 282 282 282 282 282 282 283 283 282 281 281 281 281 279 278 277 278 278 276 276 277 277 273 273 271 269 269 270 271 272 272 271 270 268 267 267 266 265 265 264 263 261 260 260 260 261 260 261 261 262 267 269 269 268 269
Wind_Speed
3 14 11 4 5 8 8 4 3 2 2 0 1 1 1 0 1 2 2 3 3 3 6 6 6 6 7 9 9 10 10 12 13 12 11 11 11 11 11 12 11 12 12 9 10 11 12 12 11 10 11 11 12 14 15 15 16 16 14 14 16 13 12 11 10 11 11 11 9 11 13 12 10 11 11 13 12 13 12 13 13 15 13 14 14 15
3 16 9 4 4 5 6 4 1 3 2 1 1 2 3 3 2 0 1 3 1 3 2 1 4 6 5 7 7 8 10 13 13 12 10 11 11 10 11 12 12 10 7 10 12 13 12 13 13 11 11 13 17 15 15 16 15 13 14 15 13 12 12 13 11 8 10 9 8 8 7 9 10 11 13 13 12 12 12 13 14 14 14 14 14 14
13 12 5 4 4 2 2 4 2 2 4 4 3 1 1 3 1 3 2 1 1 3 2 1 7 4 5 5 6 8 8 7 9 10 9 9 10 9 10 10 10 10 11 11 12 13 13 14 14 13 13 13 12 13 14 13 14 14 13 12 11 12 12 13 12 10 10 7 9 9 8 8 9 10 10 10 10 10 11 13 14 13 13 13 14 14
10 8 5 3 2 1 3 5 5 4 4 5 5 4 1 2 1 2 1 2 3 2 3 0 5 3 3 3 6 6 5 4 7 8 9 8 8 9 10 9 9 10 10 12 12 12 12 12 13 14 14 13 13 13 13 14 14 12 13 12 12 11 11 11 12 12 9 9 7 8 9 10 11 9 9 10 11 11 13 15 14 13 13 13 13 14
6 2 3 2 3 3 3 4 8 5 2 2 3 1 1 2 2 1 1 1 1 2 0 2 3 0 4 4 2 2 4 5 4 7 7 7 6 6 6 8 9 10 11 11 11 11 11 12 12 12 12 11 13 13 13 13 12 9 13 12 11 10 11 11 13 12 9 7 7 5 8 8 8 9 9 11 14 12 11 12 15 14 13 13 13 13
5 1 1 4 5 5 4 8 5 2 1 2 1 0 4 3 4 5 2 2 3 1 3 3 2 2 2 2 2 2 1 3 2 5 7 7 8 7 8 8 9 8 8 9 10 10 10 10 10 12 12 13 12 12 11 11 11 12 11 12 11 10 11 11 12 12 11 11 12 10 12 14 13 13 14 14 11 12 13 12 9 11 12 13 13 13
0 2 6 3 2 5 6 3 1 1 1 2 3 1 4 3 1 0 1 3 3 2 3 2 1 3 1 2 3 2 3 0 2 3 2 5 5 7 6 7 8 8 8 8 9 10 10 10 11 11 12 11 11 10 9 9 11 12 11 11 10 10 10 10 11 12 10 12 12 13 12 11 10 10 8 7 8 9 7 6 8 8 10 12 13 13
4 6 7 4 8 8 6 7 1 2 1 1 1 3 1 2 3 3 2 2 1 1 3 3 1 1 2 2 2 1 2 1 0 1 1 1 4 5 5 6 6 7 6 5 6 7 7 8 8 9 9 9 9 7 8 9 9 11 12 11 11 10 11 11 10 12 11 10 10 11 11 10 10 9 6 5 5 5 4 5 7 5 7 10 10 9
2 6 6 7 6 5 3 2 6 1 1 1 2 1 1 3 2 4 3 2 0 1 5 5 3 0 2 2 1 1 3 3 3 2 2 1 1 2 3 5 5 5 5 6 6 7 8 8 8 8 8 7 8 9 9 8 8 8 9 11 11 12 11 11 13 11 12 11 11 10 9 10 8 8 7 6 6 6 5 5 4 9 9 10 11 11
1 2 1 1 3 5 5 5 3 4 2 1 3 2 2 3 5 3 3 2 2 3 4 4 2 1 4 2 3 0 1 4 4 2 2 2 0 0 1 2 3 3 3 4 5 4 6 6 7 6 5 7 7 7 7 7 7 8 9 11 12 12 10 10 12 11 12 11 9 10 12 12 10 8 7 7 8 8 8 10 10 9 9 9 10 11
1 3 4 3 0 1 4 5 1 1 3 1 1 1 3 6 4 2 4 2 3 2 3 1 2 2 2 2 5 2 3 4 3 2 2 2 2 2 1 0 1 1 2 3 4 4 4 5 4 5 7 6 7 6 6 7 8 8 9 9 12 11 10 10 11 11 11 10 10 10 10 11 11 10 9 9 9 8 10 11 11 10 10 9 10 9
2 1 0 1 2 3 1 2 0 0 0 1 1 2 2 3 8 2 5 4 2 3 4 2 1 1 0 3 4 5 3 4 5 4 4 4 3 2 1 1 1 1 2 2 3 3 4 5 6 6 7 7 6 7 8 7 7 7 7 8 10 11 11 10 9 11 11 10 10 10 10 11 11 10 9 10 10 10 11 10 9 8 8 9 9 10
0 0 2 6 2 6 3 2 2 3 5 7 2 6 4 5 6 2 8 3 1 1 0 1 3 1 5 6 5 7 8 6 5 6 6 4 4 3 2 2 1 1 1 2 2 2 3 3 3 4 4 5 5 6 6 6 6 6 7 7 9 10 9 8 8 9 9 10 10 9 10 10 10 10 10 9 10 9 9 8 9 9 9 8 9 9
2 2 5 3 1 1 3 5 7 5 7 8 4 1 2 2 4 1 4 3 5 5 4 2 2 2 3 6 6 7 9 9 6 6 5 5 5 4 4 3 2 2 2 2 2 3 2 2 2 2 2 2 3 3 4 4 4 4 5 6 7 7 6 7 8 8 9 9 9 9 9 8 7 8 8 8 8 9 8 7 8 8 8 8 9 9
6 4 4 6 3 5 4 3 0 1 3 1 2 1 2 4 1 2 2 1 3 6 7 4 2 4 0 3 1 8 4 4 4 4 4 4 4 4 2 1 3 4 4 4 3 3 3 3 3 2 2 1 1 1 2 3 3 3 4 5 6 6 7 6 7 7 8 8 8 7 7 7 6 6 6 7 6 7 7 7 8 7 7 7 8 7
2 6 6 1 2 2 3 1 1 2 1 1 1 1 3 0 4 1 3 2 2 5 7 1 3 3 3 1 3 1 1 2 2 4 2 4 4 3 3 4 4 4 4 4 4 4 4 4 3 3 3 2 1 1 1 1 1 2 2 3 3 3 4 4 5 5 6 6 6 6 7 6 6 5 5 5 5 5 5 6 6 6 6 6 6 6
3 1 1 6 1 1 1 1 1 1 1 1 1 1 1 2 4 3 1 1 2 1 5 1 8 5 8 5 2 1 0 4 2 4 4 5 5 3 5 5 5 5 5 4 5 5 5 4 4 4 4 3 3 2 1 1 1 0 1 2 3 3 3 4 3 4 4 4 4 5 5 5 5 6 6 6 5 5 5 4 4 5 5 4 5 5
0 10 4 2 0 1 0 1 0 0 0 1 1 1 1 2 3 2 2 2 4 1 4 2 2 8 5 3 2 1 3 6 6 6 7 6 4 5 8 7 7 7 7 6 5 5 5 5 5 4 4 4 4 4 3 3 3 2 2 0 1 1 2 1 2 2 3 3 3 3 3 3 3 4 4 4 4 4 4 4 4 4 4 4 4 4
1 5 2 0 1 6 3 1 2 0 0 1 1 1 1 1 2 4 1 3 4 3 6 6 4 7 6 5 1 5 8 10 9 7 5 7 7 9 9 9 7 6 4 5 6 6 6 6 6 6 5 5 5 4 4 3 3 3 3 2 2 0 1 1 0 0 0 1 1 1 1 1 2 2 2 2 2 3 3 3 4 4 4 4 4 4
1 0 7 0 0 4 3 2 2 3 3 2 0 2 0 2 2 2 0 1 4 3 6 7 4 5 7 5 8 7 11 11 8 6 10 11 11 10 9 9 8 8 8 7 7 7 7 7 7 7 6 6 6 5 5 4 3 3 3 2 3 3 2 1 0 0 0 0 0 1 1 2 1 1 1 2 2 3 2 2 2 3 3 3 3 3
2 1 2 3 2 1 1 2 1 1 1 5 4 3 2 2 1 2 1 1 1 2 1 1 9 6 6 6 6 8 8 10 10 11 11 11 10 10 9 9 9 8 8 8 8 8 8 8 7 7 6 5 4 4 3 4 5 4 3 3 3 3 2 2 2 2 2 1 0 0 1 2 2 2 2 2 2 1 2 2 1 2 2 2 3 3
1 0 4 6 7 1 3 1 0 1 2 1 3 1 2 1 1 2 6 2 2 1 2 1 9 8 10 3 7 7 7 6 7 9 9 10 11 10 10 9 9 7 8 8 8 7 7 7 7 6 5 4 4 5 5 6 4 5 4 5 4 3 4 4 3 3 3 2 1 1 2 2 2 2 2 2 2 2 2 2 2 2 2 2 3 2
2 2 1 6 6 6 1 0 2 0 1 1 2 2 2 2 4 3 1 2 1 0 3 2 0 12 6 3 4 5 3 4 4 5 8 8 9 9 10 9 8 8 8 8 8 7 7 7 7 8 8 8 8 7 6 5 5 6 6 5 4 4 6 5 5 4 3 3 2 3 2 3 3 2 3 3 3 3 3 3 3 3 2 3 3 2
3 2 1 6 5 4 1 1 0 2 1 1 0 2 1 1 2 4 3 3 2 1 0 1 2 11 6 1 3 4 4 4 4 4 8 7 6 7 7 7 8 7 9 7 5 5 6 5 4 4 6 7 7 7 8 7 6 6 5 6 5 6 7 5 5 5 4 4 3 3 3 3 3 3 3 3 3 4 4 3 3 3 3 3 2 3
1 2 3 4 6 5 3 1 0 1 1 1 2 3 2 4 5 2 4 1 1 7 7 7 6 6 2 1 2 2 2 3 4 4 5 8 8 7 7 7 7 7 6 6 8 9 6 5 6 8 8 8 8 7 7 7 7 7 7 6 6 7 6 5 4 4 5 4 4 3 3 4 4 4 4 4 4 4 4 4 4 3 3 3 4 3
1 2 1 1 2 5 7 8 8 5 2 2 1 2 2 5 7 2 1 1 3 2 4 3 8 10 5 2 3 3 2 5 5 4 4 6 8 7 6 7 7 6 8 8 8 6 9 9 7 6 7 8 8 8 8 8 8 8 7 8 6 6 5 6 5 5 5 5 4 4 4 5 4 5 5 4 4 5 4 4 4 4 4 3 4 4
0 1 2 4 6 8 9 5 1 2 3 4 3 4 4 3 3 2 4 4 8 4 7 12 9 16 19 10 8 9 5 6 8 6 6 6 7 9 8 8 7 6 6 8 7 7 5 5 9 10 9 9 9 8 8 8 9 8 8 8 7 6 6 7 5 5 6 5 4 4 5 5 5 5 4 4 5 4 4 4 4 4 5 4 4 4
2 1 6 6 9 11 5 7 4 2 8 12 12 11 6 6 8 9 8 10 6 6 9 8 11 10 20 12 4 6 7 5 6 7 7 7 8 9 8 6 7 7 8 7 6 8 10 10 9 9 10 9 10 9 8 8 8 9 9 10 8 7 6 6 5 6 5 4 4 5 6 6 5 5 5 5 4 4 5 5 5 5 5 4 4 5
2 2 2 2 6 8 11 11 9 9 9 10 12 12 11 8 10 14 17 11 7 8 15 3 3 5 17 14 15 13 7 8 9 10 8 8 7 6 5 7 8 9 9 8 10 9 10 10 10 10 10 10 8 8 9 8 8 7 7 7 7 5 8 7 5 5 5 5 6 7 7 6 5 4 4 4 4 4 6 6 5 5 4 4 5 5
1 4 2 1 8 8 10 12 8 9 6 7 13 15 14 11 16 17 17 12 15 17 16 17 15 19 22 21 20 19 8 6 10 8 6 7 10 8 6 8 9 9 9 10 11 11 10 11 11 11 10 9 9 9 9 8 8 8 9 9 9 7 9 4 6 6 6 7 8 8 7 6 5 5 4 4 6 6 5 5 6 5 5 5 5 5
2 4 4 0 3 8 4 4 4 4 4 12 16 16 16 16 16 17 13 13 12 16 21 22 19 20 23 20 12 15 12 7 7 10 12 11 8 7 7 8 10 11 11 11 11 12 11 10 10 9 9 11 10 11 10 9 9 7 7 8 8 8 8 5 6 6 7 9 8 7 7 6 7 5 6 6 5 5 6 7 6 5 6 6 6 6
1 3 3 3 4 6 2 5 9 8 9 13 19 23 19 12 11 12 13 14 13 16 13 7 9 15 21 12 4 8 6 5 9 10 9 8 7 6 8 10 11 11 11 11 10 9 9 10 10 10 11 12 11 10 9 9 9 6 8 8 8 10 6 4 6 7 8 9 7 6 7 7 6 6 7 6 7 7 6 5 5 6 6 6 7 7
4 2 1 2 4 7 3 5 11 11 11 13 14 12 10 7 11 1 4 7 17 16 7 6 12 14 11 3 6 9 6 6 7 8 9 9 8 8 10 11 11 11 11 11 11 10 9 10 10 10 10 9 10 10 11 11 7 8 9 8 10 7 5 6 7 7 8 8 6 8 8 7 7 7 7 8 8 6 5 6 6 7 7 8 7 4
3 3 0 2 3 5 5 7 5 9 11 10 2 1 2 3 9 11 8 12 14 12 10 9 13 10 6 8 7 12 11 12 5 6 7 8 8 8 9 10 10 11 10 10 10 10 10 9 9 9 10 10 10 10 10 7 9 10 8 8 6 5 7 7 7 7 9 8 7 8 8 7 7 8 9 8 7 6 6 6 8 7 6 6 5 6
4 3 3 2 1 6 5 8 6 5 12 3 8 7 4 3 6 11 13 9 12 16 16 13 15 14 15 12 11 12 12 10 5 9 12 10 8 9 10 9 10 11 12 11 11 11 11 11 10 9 9 9 11 10 7 7 8 8 6 7 7 8 8 7 8 8 8 8 8 8 8 8 8 9 9 8 7 6 7 7 7 6 6 6 6 6
5 6 4 1 2 2 1 1 2 10 3 14 25 16 2 3 2 1 11 17 13 16 17 16 19 18 15 14 12 11 5 4 4 8 11 12 8 10 9 11 13 11 10 11 11 12 11 10 11 11 12 10 7 8 8 10 9 7 10 7 8 8 8 8 8 9 7 7 9 9 9 8 8 9 8 7 7 6 8 7 6 7 6 5 5 5
7 4 4 3 3 4 3 3 13 15 23 10 6 2 2 2 4 4 3 9 4 8 12 14 17 15 14 12 11 8 1 0 2 8 9 9 8 8 12 13 12 12 11 11 10 12 12 10 9 11 9 7 8 8 10 11 8 8 8 7 9 9 8 7 9 10 9 9 10 10 9 9 9 8 7 7 6 7 7 6 6 6 3 5 5 6
5 8 4 3 3 4 4 7 7 4 7 6 1 1 0 1 5 5 2 15 7 10 12 13 11 14 12 10 9 3 2 1 5 6 8 8 5 6 8 11 12 11 11 11 9 7 8 9 8 8 8 9 9 10 10 8 7 7 8 9 9 8 8 9 11 10 9 10 11 10 9 8 7 7 7 6 8 8 6 4 4 4 3 5 6 7
2 1 3 6 3 3 1 3 3 3 10 4 1 1 1 2 5 1 5 12 10 4 9 12 12 12 9 8 7 4 1 6 7 6 8 8 8 6 6 9 10 11 11 11 11 11 10 11 11 8 4 6 8 12 11 10 8 7 9 9 9 8 9 11 11 10 11 12 11 9 7 6 6 7 7 7 7 5 5 4 5 4 3 4 5 7
3 2 4 6 7 7 3 3 9 6 12 2 4 2 2 3 2 4 7 8 4 1 4 8 10 9 9 9 4 3 3 10 10 7 5 8 7 7 5 7 8 9 10 12 10 11 12 8 2 4 7 8 13 14 11 7 6 7 9 10 8 8 11 12 12 12 11 8 5 5 6 6 6 7 6 6 4 3 4 3 3 3 4 5 5 7
3 2 8 12 9 10 11 8 4 10 12 17 12 4 4 2 3 3 7 10 3 1 3 7 10 10 7 5 5 6 6 10 12 12 8 5 5 8 8 6 9 9 9 8 10 8 6 8 8 10 11 11 11 9 8 5 5 8 10 10 7 11 14 13 11 9 5 4 4 5 6 5 5 6 5 4 4 3 2 2 3 3 4 6 6 7
2 2 4 4 7 9 8 8 11 10 20 20 7 14 6 2 1 9 8 2 2 3 4 7 6 6 5 8 6 8 10 9 9 7 7 9 10 9 9 9 8 8 8 8 10 8 7 7 7 8 9 11 11 9 7 5 6 9 9 7 10 14 13 10 6 4 4 4 5 5 5 5 3 4 4 2 2 2 3 2 3 4 5 5 6 9
6 7 5 8 6 3 5 6 4 10 4 6 12 6 3 5 9 5 2 3 3 3 4 6 6 7 5 8 8 10 11 10 9 10 10 10 9 10 11 10 11 11 12 11 10 9 8 8 9 10 12 11 10 8 7 6 8 10 9 10 14 13 8 5 4 4 4 4 5 5 5 4 5 3 2 1 1 1 4 3 3 5 4 6 8 9
7 3 3 6 8 6 8 10 12 11 2 9 13 6 10 17 8 4 3 9 4 4 5 5 4 7 8 9 12 11 10 10 9 10 11 10 10 10 9 10 10 10 10 10 10 12 8 7 8 10 10 10 8 8 7 7 10 9 10 14 14 8 4 4 4 4 5 5 5 5 3 3 2 1 0 0 0 1 3 4 4 4 4 5 6 8
13 11 9 10 7 10 11 11 9 4 8 11 11 7 4 12 12 10 7 9 9 8 5 8 11 11 9 10 11 10 12 10 13 12 11 12 12 11 12 12 12 12 11 11 13 11 7 9 11 10 9 9 9 9 8 7 9 10 11 14 8 4 4 4 4 5 5 5 5 4 3 2 1 0 0 0 1 3 3 5 4 6 5 4 6 7
2 13 4 5 13 10 18 11 10 11 13 11 8 8 9 10 8 6 8 10 8 10 9 11 13 13 13 11 11 9 10 13 13 12 11 11 11 11 11 11 11 11 11 10 10 12 11 9 8 8 11 12 11 10 7 7 7 10 13 8 2 4 5 5 5 6 6 5 3 3 2 1 0 0 1 2 1 3 3 4 5 6 7 6 7 7
13 6 7 13 4 1 16 10 22 25 24 19 19 14 10 11 13 10 10 12 13 12 12 11 13 13 12 11 11 14 15 13 13 12 10 11 12 13 13 12 12 12 12 13 13 11 9 7 9 10 10 11 12 10 8 6 7 10 8 4 3 4 5 6 7 6 4 4 3 2 2 1 1 1 2 2 3 3 3 4 4 6 7 7 7 8
12 9 15 21 22 17 20 8 12 18 13 5 9 10 11 12 10 8 11 12 13 13 12 14 12 12 10 11 13 14 15 12 12 13 12 11 12 11 11 12 13 12 12 12 11 9 9 9 10 11 10 12 12 9 8 6 7 6 5 4 4 5 5 6 6 6 4 3 3 2 2 2 2 3 3 3 3 4 4 4 4 6 8 8 7 7
6 6 10 5 8 11 8 15 23 22 17 18 21 18 17 15 15 15 14 15 14 14 14 13 11 14 12 14 14 13 14 14 12 13 13 12 12 11 12 13 12 12 12 11 11 9 11 10 10 10 10 12 11 8 6 6 5 4 5 4 5 6 6 6 4 4 3 3 2 2 2 2 2 3 3 4 3 4 5 6 6 7 8 8 6 6
8 20 18 11 18 15 14 19 15 10 16 6 10 14 13 12 13 14 11 10 11 12 13 12 13 11 11 11 12 12 14 14 13 12 13 13 12 13 13 13 12 12 12 11 10 9 10 10 11 11 12 11 9 7 6 6 4 3 3 4 5 6 7 6 5 4 3 3 3 2 2 2 2 2 3 4 5 6 7 8 10 10 8 10 12 16
16 26 14 15 13 18 18 15 14 15 18 16 12 8 9 9 9 11 12 14 13 13 12 12 14 14 11 12 10 11 13 13 16 13 13 12 13 13 12 12 12 12 12 10 8 9 10 11 10 9 10 12 8 6 6 4 3 4 4 5 6 6 6 6 5 4 3 3 3 3 3 2 3 3 3 3 4 5 6 9 8 12 17 17 17 20
Wind_Direction
308 61 38 30 269 322 318 350 273 264 183 126 100 99 253 258 346 325 321 316 253 66 50 56 67 54 42 31 22 20 11 20 19 24 30 27 22 22 20 22 22 24 21 8 15 18 15 16 19 21 23 24 25 27 23 26 25 25 22 19 22 12 14 19 16 25 28 30 38 44 47 50 42 39 36 39 34 35 33 30 34 35 31 26 26 23
48 62 23 344 293 285 290 305 260 83 67 126 117 83 14 17 49 340 304 335 360 109 39 8 65 51 51 47 36 25 24 24 13 10 18 24 22 24 19 20 22 15 5 8 16 17 17 18 17 21 24 20 26 20 22 26 22 20 21 26 20 16 16 25 24 19 36 38 38 57 52 63 50 43 37 35 30 30 30 34 35 34 31 30 29 25
45 50 351 314 316 304 284 348 49 110 75 41 70 312 61 32 16 312 260 340 314 55 49 14 63 44 37 51 52 47 35 20 12 11 9 17 25 24 22 20 17 12 12 13 16 17 18 16 17 22 22 26 26 23 26 22 23 22 23 21 21 19 20 23 22 24 33 25 41 54 59 56 69 58 56 47 37 30 33 37 37 33 32 32 33 28
48 12 332 301 360 63 6 31 48 46 59 57 25 52 251 280 307 211 237 17 19 103 198 100 86 56 7 37 70 76 64 17 3 1 9 13 26 28 27 20 15 17 16 19 17 15 16 18 17 20 22 21 22 23 23 21 22 22 22 19 18 19 22 25 26 30 29 37 45 62 74 69 65 60 57 60 49 34 31 35 34 35 29 30 33 31
111 311 320 26 16 72 66 23 45 30 23 342 83 120 292 313 289 312 281 350 33 358 313 245 268 254 341 5 9 58 103 69 7 352 11 7 15 24 26 28 24 23 19 16 14 17 18 19 20 20 19 19 24 21 22 20 20 20 21 17 16 16 19 23 27 29 25 39 47 75 85 99 95 69 49 45 40 33 29 30 33 29 27 29 34 32
36 344 259 8 13 25 51 39 34 60 8 323 253 199 237 256 287 324 19 42 335 303 23 352 268 295 294 320 1 339 339 86 73 20 359 354 12 14 22 26 21 22 23 22 20 18 19 20 17 21 21 23 22 21 15 16 21 22 21 18 17 21 19 19 19 24 31 40 41 36 36 35 34 35 31 34 30 28 27 31 28 33 31 32 34 33
137 321 65 16 12 11 36 85 264 100 158 63 302 211 237 221 197 275 53 355 329 50 319 39 174 272 273 312 342 316 331 119 76 57 308 352 11 7 14 25 22 18 14 17 23 18 19 19 21 21 22 20 22 15 8 14 20 25 25 22 22 23 23 16 19 18 27 38 42 47 56 56 52 58 52 50 44 48 38 35 38 37 37 39 39 35
8 344 7 26 29 28 23 13 309 117 90 353 316 331 116 111 132 137 125 133 225 257 285 39 78 192 312 286 249 278 315 282 90 240 282 51 7 9 3 20 31 23 10 13 15 20 23 23 22 21 17 19 17 8 15 18 18 23 24 25 27 28 27 23 20 25 26 41 42 48 55 57 57 58 62 42 44 51 35 29 38 35 41 39 40 38
89 329 17 359 21 28 3 252 298 131 164 237 321 69 84 165 142 125 99 101 67 35 308 337 353 26 281 262 242 100 349 310 283 283 305 309 113 358 342 3 27 22 10 12 19 20 19 20 21 17 16 8 13 16 17 17 15 16 20 26 28 31 30 24 22 28 28 36 41 46 49 57 53 54 52 50 45 45 36 36 24 38 40 40 40 41
289 167 248 158 80 342 268 283 269 159 327 266 245 72 84 60 60 43 68 63 333 67 309 314 336 107 290 276 336 294 239 267 253 234 242 265 225 214 322 350 353 2 355 357 13 13 12 14 13 8 5 15 13 7 10 17 20 20 20 27 30 30 29 25 27 28 31 32 36 44 45 51 50 45 46 44 41 39 30 39 38 38 36 34 35 37
278 307 172 108 128 249 275 281 204 246 246 287 88 47 360 33 15 26 58 57 44 25 261 243 303 116 298 259 217 208 230 200 246 295 258 249 223 223 227 231 301 336 330 347 358 358 2 352 5 2 19 9 8 7 14 17 17 19 23 23 32 28 27 23 26 27 32 33 34 42 43 46 46 41 41 40 39 36 37 38 35 34 34 32 34 32
350 1 64 250 48 305 178 308 325 250 270 102 33 85 359 286 5 27 345 32 79 293 258 262 292 230 175 291 262 225 244 196 192 224 229 235 237 241 242 248 241 278 309 318 347 347 346 352 358 3 12 6 358 8 15 15 15 20 20 21 31 26 23 23 22 28 31 33 34 38 39 44 43 40 39 40 40 34 37 36 36 33 35 33 32 30
322 207 283 319 223 24 334 56 308 333 17 38 43 30 51 294 20 327 6 2 28 195 193 44 11 36 241 219 209 220 224 231 210 205 211 211 220 228 243 237 247 258 284 319 305 325 340 340 336 345 348 355 3 3 360 6 11 14 19 21 33 24 14 18 18 28 28 32 31 26 34 36 37 38 38 39 40 33 36 35 35 32 35 32 31 28
288 281 354 353 16 341 27 67 334 7 4 18 65 107 71 7 36 296 275 223 300 290 290 13 339 242 259 283 207 201 220 212 204 209 204 192 202 210 221 236 244 258 249 244 264 287 279 291 282 294 294 314 332 342 347 351 9 7 19 19 35 23 14 14 21 21 28 30 29 28 31 30 31 35 36 37 37 33 34 33 35 34 31 32 30 25
27 342 338 12 3 341 45 62 225 199 334 327 170 118 194 139 155 295 227 307 254 248 288 299 36 243 69 243 211 217 220 214 214 196 203 214 216 216 228 262 278 270 258 228 233 234 245 263 263 262 277 282 288 313 327 334 350 2 20 22 28 25 12 17 18 18 24 22 21 24 25 28 27 33 32 35 32 30 30 29 33 33 30 33 27 26
231 237 265 308 236 13 17 324 92 102 29 299 176 129 58 333 146 175 209 173 280 339 330 322 201 202 194 241 290 265 287 261 232 218 189 238 250 268 269 251 243 246 244 243 232 250 253 244 256 265 265 266 270 283 294 312 314 1 10 25 31 27 11 13 19 19 20 17 19 20 23 20 27 27 27 30 27 28 28 24 28 27 27 26 24 19
15 299 278 323 54 132 43 336 311 143 31 293 60 42 180 182 106 85 69 124 180 69 255 204 305 285 295 298 249 185 187 238 230 227 213 227 234 240 246 243 244 239 240 244 238 237 244 256 252 244 246 255 264 268 255 263 260 256 327 24 30 17 15 15 9 18 16 14 25 14 18 17 21 25 28 25 18 17 14 24 24 27 16 16 20 14
154 271 312 57 257 18 181 233 308 258 225 59 30 229 113 121 110 127 264 327 63 110 264 44 255 304 25 285 352 201 232 240 229 224 221 229 227 231 236 237 235 233 230 231 235 234 234 234 241 248 243 237 234 231 242 239 241 238 236 219 94 26 27 341 357 11 23 17 24 13 11 10 16 18 13 14 14 7 15 9 15 14 20 14 8 12
84 335 300 92 229 277 345 123 318 225 45 116 160 195 61 330 358 334 78 7 346 347 297 307 272 251 188 249 343 238 220 233 229 223 230 235 229 228 233 240 246 251 263 258 243 240 239 236 236 235 232 234 236 243 239 251 250 253 243 238 213 238 237 259 245 243 268 26 353 351 341 352 358 3 5 355 358 1 18 9 3 9 357 354 356 4
3 173 297 323 290 313 336 59 251 302 339 30 15 20 359 104 145 19 50 206 119 274 26 294 29 278 198 226 194 226 214 224 216 205 223 224 222 222 226 230 232 231 228 232 234 233 232 232 228 226 223 229 229 231 239 245 267 253 234 228 238 257 264 284 274 251 338 283 290 315 325 336 330 332 345 345 354 3 5 344 351 341 358 345 339 345
176 125 252 277 312 312 303 14 158 130 302 338 23 342 4 51 213 110 33 86 230 187 182 277 328 279 262 207 177 218 214 216 202 210 217 224 224 223 223 224 225 223 220 222 223 225 227 228 230 231 229 231 243 251 262 256 242 240 254 251 235 221 263 276 265 244 236 228 251 304 311 299 303 301 306 321 323 339 329 325 332 319 315 335 338 340
87 94 224 321 346 350 240 266 186 178 171 176 169 218 176 47 9 40 290 22 57 57 247 92 276 274 274 174 203 208 225 211 214 206 219 224 225 220 223 227 222 226 228 224 224 224 225 226 228 232 236 238 238 250 245 246 245 257 243 227 232 234 243 243 269 238 235 215 219 241 276 279 272 267 284 293 298 306 298 301 293 288 317 325 301 335
143 161 90 287 230 248 226 119 353 137 129 198 165 262 120 106 104 99 285 283 31 214 107 158 296 274 246 206 217 235 231 234 230 207 232 233 229 229 227 225 227 223 227 224 226 227 227 225 221 216 214 215 215 221 226 233 227 231 227 227 229 216 245 221 234 242 235 225 218 246 253 275 279 290 298 301 292 287 291 289 296 295 299 294 298 302
109 79 349 258 293 317 350 30 220 61 151 333 350 86 111 183 180 184 179 168 152 37 160 341 243 254 285 196 233 245 248 252 250 214 231 250 255 252 242 238 233 234 240 243 245 246 240 239 243 246 235 230 228 227 226 225 229 234 234 224 215 218 234 237 233 239 236 230 230 238 261 266 269 286 282 285 273 279 275 279 283 290 294 293 293 310
25 287 123 332 349 335 344 353 3 332 56 194 222 218 175 89 74 129 109 68 309 213 175 132 243 274 278 8 304 280 295 284 266 246 215 245 257 249 251 250 242 240 249 248 241 239 243 242 233 227 225 222 223 225 227 228 229 227 233 225 214 225 227 228 230 228 236 224 233 250 241 255 257 252 260 258 263 260 265 264 269 271 265 282 299 291
213 219 105 38 347 328 319 315 303 312 248 242 217 240 225 147 132 125 246 30 201 272 137 188 255 251 264 313 324 316 350 308 280 250 234 228 250 260 255 252 253 244 240 241 245 245 237 233 235 236 231 228 224 222 223 226 226 228 232 233 220 221 235 237 228 225 227 221 209 234 237 239 231 231 236 244 249 250 251 257 261 269 274 240 261 280
163 330 250 176 168 217 236 247 230 44 344 273 243 169 229 197 182 110 95 119 215 198 192 237 226 289 287 266 281 278 281 270 278 289 272 254 248 251 253 254 250 247 248 246 244 249 264 262 244 235 232 228 225 219 221 221 224 226 228 237 233 225 228 236 227 227 221 212 209 230 236 229 227 225 237 239 246 251 255 255 256 256 263 265 254 266
66 313 245 227 248 250 279 284 278 318 267 271 275 264 202 189 173 172 174 223 148 90 273 237 230 230 264 290 243 268 275 273 269 262 269 270 259 247 246 252 258 257 254 250 252 245 242 244 247 242 237 233 231 225 224 224 223 222 221 229 231 224 225 232 217 225 229 221 228 234 246 240 238 236 240 245 250 258 262 263 261 254 256 261 267 265
149 218 285 144 260 260 271 275 284 280 248 258 260 264 253 210 186 202 223 213 147 199 243 236 144 233 272 279 284 275 266 272 275 272 254 250 261 257 254 253 253 253 257 255 253 248 245 245 244 243 240 234 231 229 226 225 228 231 239 240 241 225 225 223 214 236 237 238 235 242 240 243 243 236 243 251 255 263 262 261 262 264 265 262 261 263
104 243 234 184 283 275 264 261 270 260 280 274 256 255 249 228 225 217 230 214 206 236 246 270 278 276 276 278 279 285 290 254 273 276 281 272 257 257 252 255 256 256 254 252 252 251 247 246 247 246 246 245 234 234 234 229 229 226 226 234 233 231 241 198 223 230 243 239 239 242 243 243 247 248 246 253 256 256 262 266 269 269 270 267 263 266
132 280 93 216 327 289 310 332 301 276 271 278 275 257 240 234 237 228 229 233 230 256 258 257 266 274 273 266 280 283 284 271 276 274 265 267 269 259 253 254 254 254 255 255 256 254 250 250 250 250 246 243 236 231 230 228 228 226 229 237 236 234 237 194 225 231 236 244 241 241 246 246 247 245 249 247 252 256 257 262 264 270 270 271 273 273
111 253 56 66 341 291 330 353 310 301 284 268 273 273 260 218 230 232 204 216 195 227 241 248 262 257 260 284 254 253 268 257 250 260 266 265 265 265 257 256 258 258 258 254 251 251 252 249 248 245 243 242 239 235 230 232 229 219 229 230 233 236 228 196 220 232 239 242 244 242 242 242 245 246 250 253 252 252 255 259 265 266 266 271 276 274
171 145 61 35 320 259 280 318 317 315 306 292 269 244 243 200 206 212 209 185 206 208 214 201 234 236 258 298 299 288 263 253 250 256 269 271 259 252 252 251 253 259 260 262 265 263 258 254 250 248 250 250 248 240 234 228 226 225 228 227 233 232 221 218 223 233 245 248 240 244 244 243 240 243 249 248 248 251 256 258 263 264 265 265 264 279
114 125 135 184 216 264 290 322 312 330 302 262 250 360 148 178 195 218 226 194 214 176 214 208 241 268 286 278 262 269 281 275 268 257 224 240 260 257 249 245 249 253 259 261 256 256 262 262 257 251 245 246 248 242 243 224 221 233 230 229 239 223 228 221 232 231 243 248 246 245 246 246 241 243 246 248 249 247 251 254 253 257 261 269 279 273
148 123 180 121 203 278 319 336 330 233 252 241 319 262 198 214 177 214 249 212 204 216 237 265 265 264 258 257 257 260 260 276 305 284 281 251 224 241 251 251 246 245 247 253 257 256 251 252 256 258 257 248 242 244 241 241 225 232 240 229 229 228 226 224 233 241 243 244 250 250 249 246 243 246 249 249 249 250 252 252 257 258 259 258 261 268
157 138 170 225 168 313 16 40 323 251 208 313 289 290 233 191 246 225 291 272 222 214 216 233 249 252 256 261 263 259 269 274 292 275 263 268 224 227 239 249 252 245 240 235 233 244 245 241 237 238 242 243 239 243 226 234 227 210 232 228 221 230 223 226 231 242 244 243 245 246 246 243 245 246 248 250 250 252 256 255 254 261 262 264 267 260
149 118 153 260 160 245 194 177 243 316 318 305 306 42 119 167 173 149 256 287 184 202 195 221 239 251 258 259 258 278 41 110 322 290 279 256 250 223 224 241 243 247 239 242 225 232 234 234 231 234 234 241 231 231 233 231 221 214 226 228 228 222 227 223 232 239 236 238 243 243 242 239 239 244 248 247 252 252 253 256 261 260 257 275 269 273
184 162 213 161 263 147 258 298 307 318 289 288 235 274 163 192 156 175 64 300 266 203 195 202 225 241 246 261 272 292 123 52 304 275 272 284 261 242 233 235 248 250 252 251 253 246 247 244 239 240 221 231 236 233 236 231 216 210 217 228 231 220 224 225 234 234 232 236 239 238 237 237 231 237 241 242 244 248 251 250 255 259 263 265 280 283
337 336 209 203 225 64 138 199 234 259 264 168 207 157 189 181 157 135 5 289 292 216 183 189 217 238 239 236 245 122 330 300 278 254 265 257 275 261 250 251 240 242 246 245 242 243 243 240 231 234 220 224 239 245 232 228 214 202 218 226 229 221 226 230 234 230 229 233 233 235 233 228 224 228 235 237 241 238 246 248 253 266 277 269 275 278
126 178 178 222 232 221 207 190 250 205 261 240 149 203 174 128 121 46 344 277 268 296 172 182 213 229 232 235 207 173 233 289 292 275 229 243 244 262 243 262 265 252 247 249 252 242 246 257 259 227 222 222 231 239 240 225 206 212 224 232 227 224 230 233 230 229 230 234 233 224 222 218 220 226 226 230 229 220 231 241 261 268 268 274 270 278
159 214 203 219 203 228 219 262 279 278 255 252 236 167 152 168 75 87 231 254 256 245 212 181 212 217 217 221 168 241 215 233 270 282 281 283 302 287 272 249 249 258 263 258 252 252 253 253 241 242 237 235 241 245 246 226 202 224 230 233 229 234 236 237 235 236 231 218 215 217 222 220 213 217 211 204 208 204 225 236 262 272 270 280 282 281
224 171 252 206 222 202 225 223 249 274 271 265 223 160 158 98 222 218 234 211 168 239 209 204 215 230 211 219 224 235 263 261 264 281 291 280 268 271 276 278 281 278 262 254 260 264 250 247 251 254 261 254 250 249 246 227 222 236 240 234 236 240 242 243 242 228 207 206 214 218 220 213 196 183 189 187 184 233 254 245 253 271 282 283 285 284
185 152 212 197 200 216 179 244 305 280 278 89 113 90 172 181 229 211 238 274 194 229 176 222 218 246 218 256 241 256 269 274 275 274 272 275 277 276 276 280 279 276 280 285 283 257 234 250 249 247 248 254 252 248 246 229 236 242 242 238 243 244 246 239 215 204 203 207 216 214 203 185 171 187 166 192 187 224 278 281 280 280 278 280 283 282
161 223 224 217 178 183 186 179 210 215 106 178 142 179 198 214 227 198 217 284 234 202 245 256 239 235 245 245 266 271 264 271 276 269 271 272 271 270 270 268 266 270 272 265 256 268 268 251 249 253 251 253 254 249 240 220 235 239 241 244 246 250 228 202 192 181 196 206 207 189 180 168 160 142 132 132 221 272 285 289 286 281 275 274 276 283
169 215 178 225 181 196 217 215 239 238 205 210 216 220 197 226 242 251 247 255 279 270 254 279 280 275 262 262 264 261 277 264 263 268 270 270 272 272 272 269 269 270 269 269 272 271 260 248 253 256 262 259 255 249 242 221 227 238 241 248 249 232 207 191 176 182 198 199 190 180 158 125 126 122 109 225 273 288 280 282 283 284 278 274 275 277
205 219 285 314 245 240 256 236 269 254 250 241 228 240 260 263 254 244 245 266 251 253 261 266 272 274 276 270 273 271 253 266 270 272 269 269 267 267 267 271 272 267 263 265 269 265 260 261 256 254 258 265 260 259 246 234 213 233 241 254 224 193 186 173 173 188 197 188 176 167 138 146 141 164 198 257 259 254 262 268 278 277 282 280 275 275
251 243 244 245 265 22 273 149 217 246 255 261 265 254 237 237 247 251 261 252 262 263 264 259 257 264 265 267 262 266 270 268 269 267 266 270 269 268 268 268 268 265 265 266 261 263 267 259 259 257 255 260 265 262 255 239 229 231 249 247 190 169 162 166 175 179 172 176 157 133 134 159 185 230 223 250 262 259 254 257 265 270 275 271 274 277
265 211 240 245 248 232 251 258 265 252 249 253 245 264 265 260 254 237 234 247 256 263 263 266 270 270 265 268 261 263 268 269 269 270 268 266 267 267 267 265 264 268 265 257 263 263 262 259 257 260 262 262 263 261 259 251 240 235 227 208 167 160 154 162 166 167 172 165 155 159 157 181 224 247 266 258 247 270 274 259 244 251 262 269 268 276
229 91 228 201 239 255 276 267 257 270 272 259 261 257 258 260 262 262 257 258 259 261 260 258 252 259 264 263 269 270 272 269 261 264 267 268 268 268 265 262 262 260 264 270 266 256 250 254 258 255 256 258 261 262 262 255 249 212 200 187 159 153 151 150 145 137 148 148 138 173 164 194 204 238 260 276 267 252 244 259 265 264 267 256 244 234
233 250 245 264 266 264 246 256 262 278 275 237 227 243 249 250 254 258 261 260 258 261 263 266 266 255 254 257 260 261 262 269 267 264 265 263 264 266 267 266 266 264 263 257 258 259 262 256 251 255 256 260 260 258 255 254 235 191 176 145 146 144 143 148 146 150 167 159 167 173 174 219 238 246 253 266 278 288 285 254 253 255 263 280 278 272
217 244 240 238 242 261 256 252 256 252 266 263 261 245 227 240 242 248 253 259 264 261 264 267 273 275 266 261 247 248 256 258 265 264 265 267 265 263 262 265 266 265 263 261 262 261 252 254 255 255 257 257 260 255 242 238 173 147 146 145 151 149 145 142 151 166 175 171 198 192 205 213 249 244 252 262 273 279 286 303 290 274 272 271 278 283